FW4608 Weather Reports


Display with metric or nautical units.
time (UTC)temp
F
wind
direction
speed
MPH
gust
MPH
rain 1hr
in
rain 24hr
in
rain mn
in
humidity
%
barometer
mb
20221207170024 78 252 2.0 5.0 0.00 0.01 0.01 67 1027.5
20221207165521 78 229 2.0 5.0 0.00 0.01 0.01 66 1027.6
20221207165022 79 293 0.0 2.0 0.00 0.01 0.01 65 1027.7
20221207164525 79 237 0.0 3.0 0.00 0.01 0.01 68 1027.7
20221207164019 78 288 0.0 3.0 0.00 0.01 0.01 69 1027.6
20221207163520 78 249 1.0 3.0 0.00 0.01 0.01 69 1027.8
20221207163019 78 273 0.0 3.0 0.00 0.01 0.01 70 1027.9
20221207162519 78 227 1.0 3.0 0.00 0.01 0.01 68 1027.9
20221207162019 78 300 1.0 2.0 0.00 0.01 0.01 68 1028.1
20221207161517 78 20 0.0 2.0 0.00 0.01 0.01 69 1028.2
20221207161017 78 327 0.0 1.0 0.00 0.01 0.01 70 1028.3
20221207160516 77 141 0.0 1.0 0.00 0.01 0.01 72 1028.3
20221207160030 77 259 0.0 2.0 0.00 0.01 0.01 72 1028.4
20221207155514 77 165 0.0 2.0 0.00 0.01 0.01 71 1028.5
20221207155035 76 120 0.0 2.0 0.00 0.01 0.01 74 1028.6
20221207150548 73 214 0.0 2.0 0.00 0.01 0.01 80 1028.5
20221207150050 72 295 0.0 1.0 0.00 0.01 0.01 83 1028.5
20221207145545 71 228 0.0 1.0 0.00 0.01 0.01 85 1028.5
20221207145044 70 237 0.0 1.0 0.00 0.01 0.01 86 1028.6
20221207144542 69 229 0.0 1.0 0.00 0.01 0.01 90 1028.5
20221207144041 68 241 0.0 1.0 0.00 0.01 0.01 94 1028.4
20221207143540 68 228 0.0 1.0 0.00 0.01 0.01 95 1028.4
20221207143039 67 228 0.0 1.0 0.00 0.01 0.01 96 1028.3
20221207142543 67 230 0.0 1.0 0.00 0.01 0.01 96 1028.3
20221207142037 67 268 0.0 1.0 0.00 0.01 0.01 96 1028.1
20221207141540 67 328 0.0 1.0 0.00 0.01 0.01 96 1028.2
20221207141035 66 346 0.0 0.0 0.00 0.01 0.01 96 1028.2
20221207140535 66 346 0.0 0.0 0.00 0.01 0.01 96 1028.3
20221207140035 65 346 0.0 0.0 0.00 0.01 0.01 96 1028.2
20221207135535 65 346 0.0 0.0 0.00 0.01 0.01 96 1028.1
20221207135033 64 346 0.0 1.0 0.00 0.01 0.01 96 1028.1
20221207134534 64 346 0.0 0.0 0.00 0.01 0.01 96 1028.0
20221207134029 63 346 0.0 0.0 0.00 0.01 0.01 96 1027.9
20221207133527 62 346 0.0 0.0 0.00 0.01 0.01 96 1027.8
20221207133026 61 346 0.0 0.0 0.01 0.01 0.01 96 1027.8
20221207132525 60 346 0.0 0.0 0.01 0.01 0.01 96 1027.8
20221207132025 59 346 0.0 0.0 0.01 0.01 0.01 96 1027.7
20221207131533 58 346 0.0 0.0 0.01 0.01 0.01 95 1027.8
20221207131023 58 346 0.0 0.0 0.01 0.01 0.01 95 1027.6
20221207130523 58 346 0.0 0.0 0.01 0.01 0.01 95 1027.5
20221207130027 58 346 0.0 0.0 0.01 0.01 0.01 95 1027.6
20221207125522 57 346 0.0 0.0 0.01 0.01 0.01 95 1027.5
20221207125025 57 346 0.0 0.0 0.01 0.01 0.01 95 1027.6
20221207124524 57 346 0.0 0.0 0.01 0.01 0.01 95 1027.5
20221207124021 57 346 0.0 0.0 0.01 0.01 0.01 95 1027.5
20221207123521 57 346 0.0 0.0 0.01 0.01 0.01 95 1027.4
20221207123021 57 346 0.0 0.0 0.00 0.00 0.00 95 1027.4
20221207122522 57 346 0.0 0.0 0.00 0.00 0.00 95 1027.4
20221207122020 57 346 0.0 0.0 0.00 0.00 0.00 95 1027.4
20221207121519 57 346 0.0 0.0 0.00 0.00 0.00 95 1027.3
20221207121019 57 346 0.0 0.0 0.00 0.00 0.00 95 1027.2
20221207120521 57 346 0.0 0.0 0.00 0.00 0.00 95 1027.2
20221207120030 57 346 0.0 0.0 0.00 0.00 0.00 95 1027.1
20221207115517 57 346 0.0 0.0 0.00 0.00 0.00 95 1027.2
20221207115017 57 346 0.0 0.0 0.00 0.00 0.00 95 1027.0
20221207114516 57 346 0.0 0.0 0.00 0.00 0.00 95 1026.9
20221207114018 57 346 0.0 0.0 0.00 0.00 0.00 95 1026.9
20221207113517 57 346 0.0 0.0 0.00 0.00 0.00 95 1026.8
20221207113015 57 346 0.0 0.0 0.00 0.00 0.00 95 1026.7
20221207112515 57 346 0.0 0.0 0.00 0.00 0.00 95 1026.8
20221207112015 57 346 0.0 0.0 0.00 0.00 0.00 95 1026.5
20221207111516 57 346 0.0 0.0 0.00 0.00 0.00 95 1026.5
20221207111014 57 346 0.0 0.0 0.00 0.00 0.00 95 1026.5
20221207110512 57 346 0.0 0.0 0.00 0.00 0.00 95 1026.4
20221207110015 57 345 0.0 0.0 0.00 0.00 0.00 95 1026.4
20221207105514 57 346 0.0 0.0 0.00 0.00 0.00 95 1026.4
20221207105013 57 346 0.0 0.0 0.00 0.00 0.00 95 1026.4
20221207104511 57 346 0.0 0.0 0.00 0.00 0.00 95 1026.4
20221207104011 57 346 0.0 0.0 0.00 0.00 0.00 95 1026.2
20221207103513 57 346 0.0 0.0 0.00 0.00 0.00 95 1026.3
20221207103011 57 346 0.0 0.0 0.00 0.00 0.00 95 1026.3
20221207102510 57 346 0.0 0.0 0.00 0.00 0.00 95 1026.2
20221207102012 57 346 0.0 0.0 0.00 0.00 0.00 95 1026.1
20221207101509 57 346 0.0 0.0 0.00 0.00 0.00 95 1026.0
20221207101011 57 346 0.0 0.0 0.00 0.00 0.00 95 1026.1
20221207100509 57 346 0.0 0.0 0.00 0.00 0.00 95 1026.2
20221207100008 57 346 0.0 0.0 0.00 0.00 0.00 95 1026.1
20221207095511 57 346 0.0 0.0 0.00 0.00 0.00 95 1026.0
20221207095008 57 346 0.0 0.0 0.00 0.00 0.00 95 1026.0
20221207094507 57 346 0.0 0.0 0.00 0.00 0.00 95 1026.0
20221207094009 57 346 0.0 0.0 0.00 0.00 0.00 95 1025.9
20221207093507 57 346 0.0 0.0 0.00 0.00 0.00 95 1025.9
20221207093009 57 346 0.0 0.0 0.00 0.00 0.00 95 1026.0
20221207092506 57 346 0.0 0.0 0.00 0.00 0.00 95 1025.9
20221207092006 57 346 0.0 0.0 0.00 0.00 0.00 95 1025.8
20221207091504 57 346 0.0 0.0 0.00 0.00 0.00 95 1025.7
20221207091004 57 346 0.0 0.0 0.00 0.00 0.00 95 1025.8
20221207090508 57 346 0.0 0.0 0.00 0.00 0.00 95 1025.8
20221207090004 57 346 0.0 0.0 0.00 0.00 0.00 95 1025.7
20221207085508 57 346 0.0 0.0 0.00 0.00 0.00 95 1025.8
20221207085003 57 346 0.0 0.0 0.00 0.00 0.00 95 1025.8
20221207084503 57 346 0.0 0.0 0.00 0.00 0.00 94 1025.8
20221207084002 57 346 0.0 0.0 0.00 0.00 0.00 95 1025.7
20221207083502 57 346 0.0 0.0 0.00 0.00 0.00 94 1025.9
20221207083002 58 346 0.0 0.0 0.00 0.00 0.00 95 1025.8
20221207082501 58 346 0.0 0.0 0.00 0.00 0.00 95 1025.7
20221207082003 58 346 0.0 0.0 0.00 0.00 0.00 95 1025.8
20221207081601 58 346 0.0 0.0 0.00 0.00 0.00 94 1025.7
20221207081100 58 346 0.0 0.0 0.00 0.00 0.00 94 1025.8
20221207080601 58 346 0.0 0.0 0.00 0.00 0.00 94 1025.8
20221207080503 58 346 0.0 0.0 0.00 0.00 0.00 94 1025.8
20221207080059 58 346 0.0 0.0 0.00 0.00 0.00 94 1025.8
20221207075558 58 346 0.0 0.0 0.00 0.00 0.00 94 1025.9
20221207075058 58 346 0.0 0.0 0.00 0.00 0.00 95 1025.8
20221207074558 58 346 0.0 0.0 0.00 0.00 0.00 95 1025.9
20221207074058 58 346 0.0 0.0 0.00 0.00 0.00 95 1025.9
20221207073557 58 346 0.0 0.0 0.00 0.00 0.00 94 1025.9
20221207073057 58 346 0.0 0.0 0.00 0.00 0.00 94 1026.0
20221207072556 58 346 0.0 0.0 0.00 0.00 0.00 94 1025.9
20221207072056 58 346 0.0 0.0 0.00 0.00 0.00 94 1025.9
20221207071554 58 346 0.0 0.0 0.00 0.00 0.00 94 1026.0
20221207071058 59 346 0.0 0.0 0.00 0.00 0.00 94 1026.0
20221207070559 59 346 0.0 0.0 0.00 0.00 0.00 94 1025.9
20221207070100 59 346 0.0 0.0 0.00 0.00 0.00 94 1026.0
20221207065553 59 346 0.0 0.0 0.00 0.00 0.00 94 1026.0
20221207065053 59 346 0.0 0.0 0.00 0.00 0.00 94 1026.1
20221207064605 59 346 0.0 0.0 0.00 0.00 0.00 94 1026.2
20221207064051 59 346 0.0 0.0 0.00 0.00 0.00 94 1026.1
20221207063551 59 346 0.0 0.0 0.00 0.00 0.00 94 1026.0
20221207063055 59 346 0.0 0.0 0.00 0.00 0.00 94 1025.9
20221207062550 59 346 0.0 0.0 0.00 0.00 0.00 94 1025.8
20221207062051 59 346 0.0 0.0 0.00 0.00 0.00 94 1026.0
20221207061550 59 346 0.0 0.0 0.00 0.00 0.00 94 1026.0
20221207061050 59 346 0.0 0.0 0.00 0.00 0.00 94 1026.0
20221207060549 59 346 0.0 0.0 0.00 0.00 0.00 94 1026.0
20221207060057 59 346 0.0 0.0 0.00 0.00 0.00 94 1025.9
20221207055547 60 346 0.0 0.0 0.00 0.00 0.00 94 1026.0
20221207055048 60 346 0.0 0.0 0.00 0.00 0.00 94 1025.9
20221207054547 60 346 0.0 0.0 0.00 0.00 0.00 94 1025.8
20221207054050 60 346 0.0 0.0 0.00 0.00 0.00 94 1025.7
20221207053547 60 346 0.0 0.0 0.00 0.00 0.00 94 1026.0
20221207053057 60 346 0.0 0.0 0.00 0.00 0.00 94 1025.9
20221207052545 60 346 0.0 0.0 0.00 0.00 0.00 94 1026.0
20221207052046 60 346 0.0 0.0 0.00 0.00 0.00 94 1026.0
20221207051543 60 346 0.0 0.0 0.00 0.00 0.00 94 1025.9
20221207051042 60 346 0.0 0.0 0.00 0.00 0.00 94 1025.9
20221207050541 60 346 0.0 0.0 0.00 0.00 0.00 94 1025.9
20221207050040 61 346 0.0 0.0 0.00 0.00 0.00 94 1025.9
20221207045540 61 346 0.0 0.0 0.00 0.00 0.00 94 1025.8
20221207045040 61 346 0.0 0.0 0.00 0.00 0.00 94 1026.0
20221207044545 60 346 0.0 0.0 0.00 0.00 0.00 94 1025.8
20221207044039 60 346 0.0 0.0 0.00 0.00 0.00 94 1025.7
20221207043539 60 346 0.0 0.0 0.00 0.00 0.00 93 1025.7
20221207043040 61 346 0.0 0.0 0.00 0.00 0.00 93 1025.7
20221207042543 61 346 0.0 0.0 0.00 0.00 0.00 93 1025.7
20221207042039 61 346 0.0 0.0 0.00 0.00 0.00 93 1025.8
20221207041547 61 346 0.0 0.0 0.00 0.00 0.00 94 1025.7
20221207041038 61 346 0.0 0.0 0.00 0.00 0.00 93 1025.8
20221207040540 61 346 0.0 0.0 0.00 0.00 0.00 93 1025.8
20221207040039 61 346 0.0 0.0 0.00 0.00 0.00 93 1025.8
20221207035539 61 346 0.0 0.0 0.00 0.00 0.00 93 1025.7
20221207035039 61 346 0.0 0.0 0.00 0.00 0.00 93 1025.8
20221207034538 61 346 0.0 0.0 0.00 0.00 0.00 93 1025.8
20221207034038 61 346 0.0 0.0 0.00 0.00 0.00 93 1025.8
20221207033538 61 346 0.0 0.0 0.00 0.00 0.00 93 1025.8
20221207033042 62 346 0.0 0.0 0.00 0.00 0.00 93 1025.9
20221207032540 62 346 0.0 0.0 0.00 0.00 0.00 93 1025.8
20221207032037 62 346 0.0 0.0 0.00 0.00 0.00 93 1025.8
20221207031537 62 346 0.0 0.0 0.00 0.00 0.00 93 1025.9
20221207031039 62 346 0.0 0.0 0.00 0.00 0.00 93 1025.9
20221207030539 62 346 0.0 0.0 0.00 0.00 0.00 93 1026.0
20221207030037 62 346 0.0 0.0 0.00 0.00 0.00 93 1026.0
20221207025537 62 346 0.0 0.0 0.00 0.00 0.00 92 1026.0
20221207025037 62 346 0.0 0.0 0.00 0.00 0.00 92 1026.1
20221207024543 63 346 0.0 0.0 0.00 0.00 0.00 93 1025.9
20221207024036 63 346 0.0 0.0 0.00 0.00 0.00 92 1026.0
20221207023535 63 346 0.0 0.0 0.00 0.00 0.00 92 1026.0
20221207023035 63 346 0.0 0.0 0.00 0.00 0.00 92 1025.9
20221207022535 63 346 0.0 0.0 0.00 0.00 0.00 92 1025.8
20221207022036 63 346 0.0 0.0 0.00 0.00 0.00 92 1025.8
20221207021533 63 346 0.0 0.0 0.00 0.00 0.00 92 1025.8
20221207021033 63 346 0.0 0.0 0.00 0.00 0.00 92 1025.8
20221207020534 63 346 0.0 0.0 0.00 0.00 0.00 92 1025.7
20221207020033 63 346 0.0 0.0 0.00 0.00 0.00 92 1025.7
20221207015534 64 346 0.0 0.0 0.00 0.00 0.00 92 1025.6
20221207015033 64 346 0.0 0.0 0.00 0.00 0.00 91 1025.8
20221207014533 64 346 0.0 0.0 0.00 0.00 0.00 91 1025.8
20221207014032 64 346 0.0 0.0 0.00 0.00 0.00 91 1025.7
20221207013533 64 346 0.0 0.0 0.00 0.00 0.00 91 1025.7
20221207013034 64 346 0.0 0.0 0.00 0.00 0.00 91 1025.7
20221207012534 64 346 0.0 0.0 0.00 0.00 0.00 90 1025.7
20221207012032 64 346 0.0 0.0 0.00 0.00 0.00 90 1025.7
20221207011532 65 346 0.0 0.0 0.00 0.00 0.00 90 1025.6
20221207011030 65 346 0.0 0.0 0.00 0.00 0.00 90 1025.6
20221207010530 65 346 0.0 0.0 0.00 0.00 0.00 90 1025.5
20221207010030 65 346 0.0 0.0 0.00 0.00 0.00 90 1025.5
20221207005530 65 346 0.0 0.0 0.00 0.00 0.00 89 1025.4
20221207005029 65 346 0.0 0.0 0.00 0.00 0.00 89 1025.4
20221207004531 65 346 0.0 0.0 0.00 0.00 0.00 89 1025.3
20221207004029 65 346 0.0 0.0 0.00 0.00 0.00 89 1025.3
20221207003529 66 346 0.0 0.0 0.00 0.00 0.00 88 1025.2
20221207003028 66 346 0.0 0.0 0.00 0.00 0.00 88 1025.1
20221207002528 66 346 0.0 1.0 0.00 0.00 0.00 88 1025.1
20221207002028 66 346 0.0 1.0 0.00 0.00 0.00 88 1025.0
20221207001527 66 346 0.0 1.0 0.00 0.00 0.00 87 1025.1
20221207001026 67 346 0.0 1.0 0.00 0.00 0.00 87 1024.9
20221207000527 67 346 0.0 0.0 0.00 0.00 0.00 87 1024.9
20221207000036 67 346 0.0 0.0 0.00 0.00 0.00 86 1024.8
20221206235525 67 346 0.0 1.0 0.00 0.00 0.00 86 1024.7
20221206235026 67 346 0.0 1.0 0.00 0.00 0.00 86 1024.6
20221206234532 68 340 0.0 1.0 0.00 0.00 0.00 86 1024.6
20221206234025 68 340 0.0 1.0 0.00 0.00 0.00 86 1024.7
20221206233525 68 340 0.0 1.0 0.00 0.00 0.00 86 1024.6
20221206233026 68 44 0.0 1.0 0.00 0.00 0.00 85 1024.5
20221206232525 68 355 0.0 0.0 0.00 0.00 0.00 85 1024.7
20221206232024 69 355 0.0 1.0 0.00 0.00 0.00 85 1024.7
20221206231536 69 355 0.0 1.0 0.00 0.00 0.00 85 1024.5
20221206231024 69 355 0.0 0.0 0.00 0.00 0.00 84 1024.6
20221206230528 70 355 0.0 0.0 0.00 0.00 0.00 84 1024.6
20221206230029 70 356 0.0 0.0 0.00 0.00 0.00 83 1024.5
20221206225524 70 355 0.0 1.0 0.00 0.00 0.00 83 1024.6
20221206225024 71 355 0.0 1.0 0.00 0.00 0.00 82 1024.5
20221206224532 71 355 0.0 1.0 0.00 0.00 0.00 82 1024.6
20221206224026 71 355 0.0 1.0 0.00 0.00 0.00 81 1024.6
20221206223524 72 20 0.0 1.0 0.00 0.00 0.00 81 1024.5
20221206223030 72 20 0.0 0.0 0.00 0.00 0.00 81 1024.5
20221206222525 72 20 0.0 1.0 0.00 0.00 0.00 80 1024.4
20221206222023 73 20 0.0 1.0 0.00 0.00 0.00 79 1024.4
20221206221523 73 84 0.0 1.0 0.00 0.00 0.00 79 1024.3
20221206221022 74 83 0.0 1.0 0.00 0.00 0.00 78 1024.3
20221206220522 74 83 0.0 1.0 0.00 0.00 0.00 77 1024.2
20221206220022 75 302 0.0 1.0 0.00 0.00 0.00 76 1024.2
20221206215521 76 311 0.0 1.0 0.00 0.00 0.00 75 1024.2
20221206215021 77 311 0.0 1.0 0.00 0.00 0.00 74 1024.1
20221206214522 78 47 0.0 3.0 0.00 0.00 0.00 73 1024.0
20221206214022 78 299 0.0 3.0 0.00 0.00 0.00 73 1024.0
20221206213522 78 136 0.0 1.0 0.00 0.00 0.00 73 1023.8
20221206213021 79 129 0.0 2.0 0.00 0.00 0.00 72 1023.6
20221206212520 79 165 0.0 2.0 0.00 0.00 0.00 70 1023.7
20221206212022 80 248 0.0 1.0 0.00 0.00 0.00 68 1023.6
20221206211521 80 248 0.0 1.0 0.00 0.00 0.00 65 1023.7
20221206211019 80 247 0.0 1.0 0.00 0.00 0.00 67 1023.6
20221206210520 79 248 0.0 1.0 0.00 0.00 0.00 68 1023.5
20221206210023 80 247 0.0 2.0 0.00 0.00 0.00 67 1023.4
20221206205518 80 248 0.0 2.0 0.00 0.00 0.00 66 1023.4
20221206205019 82 130 0.0 1.0 0.00 0.00 0.00 63 1023.3
20221206204518 82 130 0.0 1.0 0.00 0.00 0.00 63 1023.3
20221206204017 82 149 0.0 1.0 0.00 0.00 0.00 65 1023.4
20221206203517 82 245 0.0 3.0 0.00 0.00 0.00 65 1023.4
20221206203016 81 245 0.0 3.0 0.00 0.00 0.00 66 1023.3
20221206202520 82 229 0.0 1.0 0.00 0.00 0.00 64 1023.2
20221206202015 82 287 0.0 1.0 0.00 0.00 0.00 63 1023.2
20221206201515 82 284 0.0 1.0 0.00 0.00 0.00 64 1023.2
20221206201015 82 191 0.0 1.0 0.00 0.00 0.00 65 1023.3
20221206200516 82 313 0.0 1.0 0.00 0.00 0.00 64 1023.2
20221206200013 82 55 0.0 2.0 0.00 0.00 0.00 65 1023.2
20221206195512 82 318 0.0 2.0 0.00 0.00 0.00 65 1023.2
20221206195011 82 330 0.0 2.0 0.00 0.00 0.00 65 1023.2
20221206194513 81 264 0.0 3.0 0.00 0.00 0.00 68 1023.2
20221206194012 81 243 1.0 3.0 0.00 0.00 0.00 67 1023.1
20221206193509 81 305 0.0 2.0 0.00 0.00 0.00 67 1023.4
20221206193008 81 277 0.0 2.0 0.00 0.00 0.00 68 1023.4
20221206192506 80 110 0.0 2.0 0.00 0.00 0.00 68 1023.3
20221206192010 80 105 0.0 2.0 0.00 0.00 0.00 69 1023.4
20221206191505 80 224 0.0 2.0 0.00 0.00 0.00 69 1023.3
20221206191003 80 139 0.0 2.0 0.00 0.00 0.00 68 1023.2
20221206190504 80 293 0.0 2.0 0.00 0.00 0.00 67 1023.4
20221206190002 80 103 0.0 3.0 0.00 0.00 0.00 69 1023.4
20221206185501 80 128 0.0 3.0 0.00 0.00 0.00 69 1023.4
20221206185100 80 110 0.0 2.0 0.00 0.00 0.00 71 1023.6
20221206184559 80 99 0.0 2.0 0.00 0.00 0.00 71 1023.5
20221206184058 80 89 0.0 3.0 0.00 0.00 0.00 69 1023.6
20221206183600 81 105 0.0 3.0 0.00 0.00 0.00 72 1023.6
20221206183056 80 93 0.0 3.0 0.00 0.00 0.00 69 1023.7
20221206182555 80 256 0.0 3.0 0.00 0.00 0.00 71 1023.7
20221206182053 79 214 0.0 3.0 0.00 0.00 0.00 72 1023.8
20221206181553 79 317 1.0 4.0 0.00 0.00 0.00 71 1023.9
20221206181051 79 309 2.0 4.0 0.00 0.00 0.00 72 1023.8
20221206180552 79 255 1.0 4.0 0.00 0.00 0.00 70 1023.9
20221206180050 79 302 1.0 4.0 0.00 0.00 0.00 73 1024.0
20221206175552 78 248 0.0 4.0 0.00 0.00 0.00 73 1024.0
20221206175050 78 308 1.0 3.0 0.00 0.00 0.00 74 1023.9
20221206174548 78 287 0.0 5.0 0.00 0.00 0.00 73 1024.0
20221206174049 78 285 1.0 6.0 0.00 0.00 0.00 73 1024.0
20221206173548 78 255 1.0 6.0 0.00 0.00 0.00 73 1024.1
20221206173047 78 233 1.0 3.0 0.00 0.00 0.00 74 1024.1
20221206172549 77 290 0.0 4.0 0.00 0.00 0.00 75 1024.2
20221206172047 77 261 2.0 6.0 0.00 0.00 0.00 74 1024.1
20221206171546 77 212 1.0 6.0 0.00 0.00 0.00 74 1024.1
20221206171045 77 300 1.0 3.0 0.00 0.00 0.00 74 1024.1
20221206170543 77 261 0.0 2.0 0.00 0.00 0.00 74 1024.2